Simultaneous Nadir Overpasses (SNOs) Predictions

Prediction of SNOs between AQUA and METOP-A Satellite Orbit:

Table of predicted SNOs for the next 14.0 days since TLE Epoch: 5/5/2017
Index Date (AQUA) Time (AQUA) Lat,Lon (AQUA) SZA (AQUA ) Date (METOP-A) Time (METOP-A) Lat,Lon (METOP-A) SZA (METOP-A ) Distance(km) Time Diff (sec)
1 05/06/2017 07:34:52 -73.45,-118.68 123.22 05/06/2017 07:33:43 -73.37,-120.60 123.23 61.65 69
2 05/06/2017 08:24:28 73.88, 48.02 57.24 05/06/2017 08:24:12 73.90, 47.96 57.25 2.30 16
3 05/06/2017 09:13:55 -73.97,-144.52 122.69 05/06/2017 09:14:52 -73.99,-144.48 122.67 3.16 57
4 05/09/2017 03:09:11 -73.74, -52.86 123.68 05/09/2017 03:07:58 -73.69, -53.45 123.70 19.35 73
5 05/09/2017 03:58:42 73.92, 114.39 56.50 05/09/2017 03:58:33 73.92, 114.43 56.51 1.21 9
6 05/09/2017 04:48:09 -74.00, -78.15 123.42 05/09/2017 04:49:14 -73.97, -78.14 123.46 3.71 65
7 05/11/2017 22:43:26 -73.83, 13.38 124.31 05/11/2017 22:42:16 -73.86, 13.35 124.27 3.14 70
8 05/11/2017 23:32:55 73.90,-179.14 55.76 05/11/2017 23:32:55 73.89,-179.24 55.75 3.32 0
9 05/12/2017 00:22:22 -73.99, -11.68 124.16 05/12/2017 00:23:35 -73.99, -11.68 124.17 0.05 73
10 05/14/2017 18:17:39 -73.88, 79.72 124.95 05/14/2017 18:16:36 -73.88, 79.81 124.94 2.56 63
11 05/14/2017 19:07:07 73.90,-112.69 55.07 05/14/2017 19:07:15 73.91,-112.79 55.08 3.18 8
12 05/14/2017 19:56:40 -74.29, 54.06 124.53 05/14/2017 19:57:50 -74.25, 55.38 124.61 40.05 70
13 05/17/2017 13:51:52 -73.88, 146.16 125.59 05/17/2017 13:50:57 -73.90, 146.25 125.57 3.24 55
14 05/17/2017 14:41:21 73.95, -46.37 54.48 05/17/2017 14:41:36 73.93, -46.34 54.45 3.18 15




NCC Satellite Simultaneous Nadir Overpasses (SNOs) Prediction Service
